owner,sensor,date,latitude,longitude,vertical_datum,sea_water_temperature,qcFlag
Shell,ioos:station:wmo:42882:1,2023-07-01T00:00:00Z,26.2741,-94.4298,8.6,31.2,11111222
Shell,ioos:station:wmo:42882:1,2023-07-01T00:10:00Z,26.2750,-94.4317,8.6,31.1,11111222
Shell,ioos:station:wmo:42882:1,2023-07-01T00:20:00Z,26.2750,-94.4317,8.7,31.1,11111222
Shell,ioos:station:wmo:42882:1,2023-07-01T00:30:00Z,26.2750,-94.4317,8.7,31.1,11111222
Shell,ioos:station:wmo:42882:1,2023-07-01T00:40:00Z,26.2750,-94.4317,8.7,31.1,11111222
Shell,ioos:station:wmo:42882:1,2023-07-01T00:50:00Z,26.2750,-94.4317,8.6,31.1,11111222
Shell,ioos:station:wmo:42882:1,2023-07-01T01:00:00Z,26.2750,-94.4317,8.7,31.1,11111222
Shell,ioos:station:wmo:42882:1,2023-07-01T01:10:00Z,26.2750,-94.4317,8.6,31.1,11111222
Shell,ioos:station:wmo:42882:1,2023-07-01T01:20:00Z,26.2750,-94.4317,8.6,31.1,11111222
Shell,ioos:station:wmo:42882:1,2023-07-01T01:30:00Z,26.2750,-94.4317,8.5,31.0,11111222
Shell,ioos:station:wmo:42882:1,2023-07-01T01:40:00Z,26.2750,-94.4317,8.5,31.0,11111222
Shell,ioos:station:wmo:42882:1,2023-07-01T01:50:00Z,26.2750,-94.4317,8.5,31.0,11111222
Shell,ioos:station:wmo:42882:1,2023-07-01T02:00:00Z,26.2750,-94.4317,8.4,31.0,11111222
Shell,ioos:station:wmo:42882:1,2023-07-01T02:10:00Z,26.2750,-94.4317,8.4,31.0,11111222
Shell,ioos:station:wmo:42882:1,2023-07-01T02:20:00Z,26.2750,-94.4317,8.5,31.0,11111222
Shell,ioos:station:wmo:42882:1,2023-07-01T02:30:00Z,26.2750,-94.4317,8.5,31.0,11111222
Shell,ioos:station:wmo:42882:1,2023-07-01T02:40:00Z,26.2750,-94.4317,8.5,31.0,11111222
Shell,ioos:station:wmo:42882:1,2023-07-01T02:50:00Z,26.2750,-94.4317,8.5,31.0,11111222
Shell,ioos:station:wmo:42882:1,2023-07-01T03:00:00Z,26.2750,-94.4317,8.5,31.0,11111222
Shell,ioos:station:wmo:42882:1,2023-07-01T03:10:00Z,26.2750,-94.4317,8.5,31.0,11111222
Shell,ioos:station:wmo:42882:1,2023-07-01T03:20:00Z,26.2750,-94.4317,8.5,31.0,11111222
Shell,ioos:station:wmo:42882:1,2023-07-01T03:30:00Z,26.2750,-94.4317,8.5,31.0,11111222
Shell,ioos:station:wmo:42882:1,2023-07-01T03:40:00Z,26.2750,-94.4317,8.6,31.0,11111222
Shell,ioos:station:wmo:42882:1,2023-07-01T03:50:00Z,26.2750,-94.4317,8.6,31.0,11111222
Shell,ioos:station:wmo:42882:1,2023-07-01T04:00:00Z,26.2750,-94.4317,8.6,31.0,11111222
Shell,ioos:station:wmo:42882:1,2023-07-01T04:10:00Z,26.2750,-94.4317,8.5,31.0,11111222
Shell,ioos:station:wmo:42882:1,2023-07-01T04:20:00Z,26.2750,-94.4317,8.5,31.0,11111222
Shell,ioos:station:wmo:42882:1,2023-07-01T04:30:00Z,26.2750,-94.4317,8.5,31.0,11111222
Shell,ioos:station:wmo:42882:1,2023-07-01T04:40:00Z,26.2750,-94.4317,8.5,31.0,11111222
Shell,ioos:station:wmo:42882:1,2023-07-01T04:50:00Z,26.2750,-94.4317,8.5,31.0,11111222
Shell,ioos:station:wmo:42882:1,2023-07-01T05:00:00Z,26.2741,-94.4298,8.5,31.0,11111222
Shell,ioos:station:wmo:42882:1,2023-07-01T05:10:00Z,26.2741,-94.4298,8.5,31.0,11111222
Shell,ioos:station:wmo:42882:1,2023-07-01T05:20:00Z,26.2741,-94.4298,8.5,31.0,11111222
Shell,ioos:station:wmo:42882:1,2023-07-01T05:30:00Z,26.2741,-94.4298,8.5,31.0,11111222
Shell,ioos:station:wmo:42882:1,2023-07-01T05:40:00Z,26.2741,-94.4298,8.5,31.0,11111222
Shell,ioos:station:wmo:42882:1,2023-07-01T05:50:00Z,26.2741,-94.4298,8.6,31.0,11111222
Shell,ioos:station:wmo:42882:1,2023-07-01T06:00:00Z,26.2741,-94.4298,8.6,31.0,11111222
Shell,ioos:station:wmo:42882:1,2023-07-01T06:10:00Z,26.2741,-94.4298,8.6,31.0,11111222
Shell,ioos:station:wmo:42882:1,2023-07-01T06:20:00Z,26.2741,-94.4298,8.5,31.0,11111222
Shell,ioos:station:wmo:42882:1,2023-07-01T06:30:00Z,26.2741,-94.4298,8.5,31.0,11111222
Shell,ioos:station:wmo:42882:1,2023-07-01T06:40:00Z,26.2741,-94.4298,8.6,30.9,11111222
Shell,ioos:station:wmo:42882:1,2023-07-01T06:50:00Z,26.2741,-94.4298,8.6,30.9,11111222
Shell,ioos:station:wmo:42882:1,2023-07-01T07:00:00Z,26.2741,-94.4298,8.6,30.9,11111222
Shell,ioos:station:wmo:42882:1,2023-07-01T07:10:00Z,26.2741,-94.4298,8.6,30.9,11111222
Shell,ioos:station:wmo:42882:1,2023-07-01T07:20:00Z,26.2741,-94.4298,8.6,30.9,11111222
Shell,ioos:station:wmo:42882:1,2023-07-01T07:30:00Z,26.2741,-94.4298,8.6,31.0,11111222
Shell,ioos:station:wmo:42882:1,2023-07-01T07:40:00Z,26.2741,-94.4298,8.6,31.0,11111222
Shell,ioos:station:wmo:42882:1,2023-07-01T07:50:00Z,26.2741,-94.4298,8.4,31.0,11111222
Shell,ioos:station:wmo:42882:1,2023-07-01T08:00:00Z,26.2741,-94.4298,8.4,31.0,11111222
Shell,ioos:station:wmo:42882:1,2023-07-01T08:10:00Z,26.2741,-94.4298,8.5,31.0,11111222
Shell,ioos:station:wmo:42882:1,2023-07-01T08:20:00Z,26.2741,-94.4298,8.7,31.0,11111222
Shell,ioos:station:wmo:42882:1,2023-07-01T08:30:00Z,26.2741,-94.4298,8.7,31.0,11111222
Shell,ioos:station:wmo:42882:1,2023-07-01T08:40:00Z,26.2741,-94.4298,8.7,30.9,11111222
Shell,ioos:station:wmo:42882:1,2023-07-01T08:50:00Z,26.2741,-94.4298,8.5,30.9,11111222
Shell,ioos:station:wmo:42882:1,2023-07-01T09:00:00Z,26.2741,-94.4298,8.6,30.9,11111222
Shell,ioos:station:wmo:42882:1,2023-07-01T09:10:00Z,26.2741,-94.4298,8.6,31.0,11111222
Shell,ioos:station:wmo:42882:1,2023-07-01T09:20:00Z,26.2741,-94.4298,8.6,31.0,11111222
Shell,ioos:station:wmo:42882:1,2023-07-01T09:30:00Z,26.2741,-94.4298,8.5,31.0,11111222
Shell,ioos:station:wmo:42882:1,2023-07-01T09:40:00Z,26.2741,-94.4298,8.4,31.0,11111222
Shell,ioos:station:wmo:42882:1,2023-07-01T09:50:00Z,26.2741,-94.4298,8.6,31.0,11111222
Shell,ioos:station:wmo:42882:1,2023-07-01T10:00:00Z,26.2741,-94.4298,8.6,31.0,11111222
Shell,ioos:station:wmo:42882:1,2023-07-01T10:10:00Z,26.2741,-94.4298,8.5,31.0,11111222
Shell,ioos:station:wmo:42882:1,2023-07-01T10:20:00Z,26.2741,-94.4298,8.5,31.0,11111222
Shell,ioos:station:wmo:42882:1,2023-07-01T10:30:00Z,26.2741,-94.4298,8.4,31.0,11111222
Shell,ioos:station:wmo:42882:1,2023-07-01T10:40:00Z,26.2741,-94.4298,8.4,31.0,11111222
Shell,ioos:station:wmo:42882:1,2023-07-01T10:50:00Z,26.2741,-94.4298,8.4,31.1,11111222
Shell,ioos:station:wmo:42882:1,2023-07-01T11:00:00Z,26.2741,-94.4298,8.1,31.1,11111222
Shell,ioos:station:wmo:42882:1,2023-07-01T11:10:00Z,26.2741,-94.4298,8.3,31.1,11111222
Shell,ioos:station:wmo:42882:1,2023-07-01T11:20:00Z,26.2741,-94.4298,8.3,31.0,11111222
Shell,ioos:station:wmo:42882:1,2023-07-01T11:30:00Z,26.2741,-94.4298,8.4,31.0,11111222
Shell,ioos:station:wmo:42882:1,2023-07-01T11:40:00Z,26.2741,-94.4298,8.5,31.0,11111222
Shell,ioos:station:wmo:42882:1,2023-07-01T11:50:00Z,26.2741,-94.4298,8.4,31.0,11111222
Shell,ioos:station:wmo:42882:1,2023-07-01T12:00:00Z,26.2741,-94.4298,8.6,31.0,11111222
Shell,ioos:station:wmo:42882:1,2023-07-01T12:10:00Z,26.2741,-94.4298,8.4,31.1,11111222
Shell,ioos:station:wmo:42882:1,2023-07-01T12:20:00Z,26.2741,-94.4298,8.4,31.1,11111222
Shell,ioos:station:wmo:42882:1,2023-07-01T12:30:00Z,26.2747,-94.4299,8.4,31.1,11111222
Shell,ioos:station:wmo:42882:1,2023-07-01T12:40:00Z,26.2749,-94.4297,8.4,31.1,11111222
Shell,ioos:station:wmo:42882:1,2023-07-01T12:50:00Z,26.2749,-94.4297,8.5,31.2,11111222
Shell,ioos:station:wmo:42882:1,2023-07-01T13:00:00Z,26.2749,-94.4297,8.5,31.2,11111222
Shell,ioos:station:wmo:42882:1,2023-07-01T13:10:00Z,26.2749,-94.4297,8.4,31.2,11111222
Shell,ioos:station:wmo:42882:1,2023-07-01T13:20:00Z,26.2750,-94.4292,8.4,31.2,11111222
Shell,ioos:station:wmo:42882:1,2023-07-01T13:30:00Z,26.2749,-94.4289,8.4,31.2,11111222
Shell,ioos:station:wmo:42882:1,2023-07-01T13:40:00Z,26.2750,-94.4290,8.4,31.2,11111222
Shell,ioos:station:wmo:42882:1,2023-07-01T13:50:00Z,26.2743,-94.4299,8.4,31.1,11111222
Shell,ioos:station:wmo:42882:1,2023-07-01T14:00:00Z,26.2744,-94.4288,8.4,31.1,11111222
Shell,ioos:station:wmo:42882:1,2023-07-01T14:10:00Z,26.2749,-94.4289,8.4,31.2,11111222
Shell,ioos:station:wmo:42882:1,2023-07-01T14:20:00Z,26.2749,-94.4289,8.4,31.2,11111222
Shell,ioos:station:wmo:42882:1,2023-07-01T14:30:00Z,26.2749,-94.4289,8.3,31.2,11111222
Shell,ioos:station:wmo:42882:1,2023-07-01T14:40:00Z,26.2745,-94.4288,8.1,31.2,11111222
Shell,ioos:station:wmo:42882:1,2023-07-01T14:50:00Z,26.2741,-94.4289,8.5,31.2,11111222
Shell,ioos:station:wmo:42882:1,2023-07-01T15:00:00Z,26.2741,-94.4289,8.4,31.3,11111222
Shell,ioos:station:wmo:42882:1,2023-07-01T15:10:00Z,26.2741,-94.4289,8.4,31.2,11111222
Shell,ioos:station:wmo:42882:1,2023-07-01T15:20:00Z,26.2741,-94.4289,8.3,31.2,11111222
Shell,ioos:station:wmo:42882:1,2023-07-01T15:30:00Z,26.2741,-94.4289,8.7,31.2,11111222
Shell,ioos:station:wmo:42882:1,2023-07-01T15:40:00Z,26.2741,-94.4289,8.6,31.2,11111222
Shell,ioos:station:wmo:42882:1,2023-07-01T15:50:00Z,26.2741,-94.4289,8.7,31.2,11111222
Shell,ioos:station:wmo:42882:1,2023-07-01T16:00:00Z,26.2741,-94.4289,8.6,31.2,11111222
Shell,ioos:station:wmo:42882:1,2023-07-01T16:10:00Z,26.2741,-94.4289,8.8,31.2,11111222
Shell,ioos:station:wmo:42882:1,2023-07-01T16:20:00Z,26.2741,-94.4289,8.5,31.2,11111222
Shell,ioos:station:wmo:42882:1,2023-07-01T16:30:00Z,26.2741,-94.4289,8.6,31.2,11111222
Shell,ioos:station:wmo:42882:1,2023-07-01T16:40:00Z,26.2741,-94.4289,8.6,31.2,11111222
Shell,ioos:station:wmo:42882:1,2023-07-01T16:50:00Z,26.2741,-94.4289,8.7,31.1,11111222
Shell,ioos:station:wmo:42882:1,2023-07-01T17:00:00Z,26.2741,-94.4289,8.8,31.2,11111222
Shell,ioos:station:wmo:42882:1,2023-07-01T17:10:00Z,26.2741,-94.4289,8.5,31.3,11111222
Shell,ioos:station:wmo:42882:1,2023-07-01T17:20:00Z,26.2741,-94.4289,8.6,31.3,11111222
Shell,ioos:station:wmo:42882:1,2023-07-01T17:30:00Z,26.2741,-94.4289,8.7,31.2,11111222
Shell,ioos:station:wmo:42882:1,2023-07-01T17:40:00Z,26.2741,-94.4289,8.4,31.2,11111222
Shell,ioos:station:wmo:42882:1,2023-07-01T17:50:00Z,26.2741,-94.4289,8.3,31.2,11111222
Shell,ioos:station:wmo:42882:1,2023-07-01T18:00:00Z,26.2741,-94.4289,8.6,31.2,11111222
Shell,ioos:station:wmo:42882:1,2023-07-01T18:10:00Z,26.2741,-94.4289,8.7,31.2,11111222
Shell,ioos:station:wmo:42882:1,2023-07-01T18:20:00Z,26.2741,-94.4289,8.6,31.2,11111222
Shell,ioos:station:wmo:42882:1,2023-07-01T18:30:00Z,26.2741,-94.4289,8.5,31.3,11111222
Shell,ioos:station:wmo:42882:1,2023-07-01T18:40:00Z,26.2741,-94.4289,8.5,31.3,11111222
Shell,ioos:station:wmo:42882:1,2023-07-01T18:50:00Z,26.2741,-94.4289,8.5,31.2,11111222
Shell,ioos:station:wmo:42882:1,2023-07-01T19:00:00Z,26.2741,-94.4289,8.5,31.1,11111222
Shell,ioos:station:wmo:42882:1,2023-07-01T19:10:00Z,26.2741,-94.4289,8.4,31.1,11111222
Shell,ioos:station:wmo:42882:1,2023-07-01T19:20:00Z,26.2741,-94.4289,8.3,31.1,11111222
Shell,ioos:station:wmo:42882:1,2023-07-01T19:30:00Z,26.2741,-94.4289,8.5,31.1,11111222
Shell,ioos:station:wmo:42882:1,2023-07-01T19:40:00Z,26.2741,-94.4289,8.5,31.1,11111222
Shell,ioos:station:wmo:42882:1,2023-07-01T19:50:00Z,26.2741,-94.4289,8.4,31.1,11111222
Shell,ioos:station:wmo:42882:1,2023-07-01T20:00:00Z,26.2741,-94.4289,8.2,31.1,11111222
Shell,ioos:station:wmo:42882:1,2023-07-01T20:10:00Z,26.2741,-94.4289,8.1,31.1,11111222
Shell,ioos:station:wmo:42882:1,2023-07-01T20:20:00Z,26.2741,-94.4289,8.1,31.2,11111222
Shell,ioos:station:wmo:42882:1,2023-07-01T20:30:00Z,26.2741,-94.4289,8.2,31.2,11111222
Shell,ioos:station:wmo:42882:1,2023-07-01T20:40:00Z,26.2741,-94.4289,8.3,31.2,11111222
Shell,ioos:station:wmo:42882:1,2023-07-01T20:50:00Z,26.2741,-94.4289,8.4,31.2,11111222
Shell,ioos:station:wmo:42882:1,2023-07-01T21:00:00Z,26.2741,-94.4289,8.7,31.2,11111222
Shell,ioos:station:wmo:42882:1,2023-07-01T21:10:00Z,26.2741,-94.4289,8.6,31.2,11111222
Shell,ioos:station:wmo:42882:1,2023-07-01T21:20:00Z,26.2741,-94.4289,8.7,31.2,11111222
Shell,ioos:station:wmo:42882:1,2023-07-01T21:30:00Z,26.2741,-94.4289,8.5,31.1,11111222
Shell,ioos:station:wmo:42882:1,2023-07-01T21:40:00Z,26.2741,-94.4289,8.7,31.1,11111222
Shell,ioos:station:wmo:42882:1,2023-07-01T21:50:00Z,26.2741,-94.4289,8.5,31.1,11111222
Shell,ioos:station:wmo:42882:1,2023-07-01T22:00:00Z,26.2741,-94.4289,8.6,31.2,11111222
Shell,ioos:station:wmo:42882:1,2023-07-01T22:10:00Z,26.2741,-94.4289,8.6,31.2,11111222
Shell,ioos:station:wmo:42882:1,2023-07-01T22:20:00Z,26.2741,-94.4289,8.5,31.3,11111222
Shell,ioos:station:wmo:42882:1,2023-07-01T22:30:00Z,26.2741,-94.4289,8.6,31.4,11111222
Shell,ioos:station:wmo:42882:1,2023-07-01T22:40:00Z,26.2741,-94.4289,8.6,31.3,11111222
Shell,ioos:station:wmo:42882:1,2023-07-01T22:50:00Z,26.2741,-94.4289,8.6,31.2,11111222
Shell,ioos:station:wmo:42882:1,2023-07-01T23:00:00Z,26.2741,-94.4289,8.4,31.2,11111222
Shell,ioos:station:wmo:42882:1,2023-07-01T23:10:00Z,26.2741,-94.4289,8.5,31.3,11111222
Shell,ioos:station:wmo:42882:1,2023-07-01T23:20:00Z,26.2741,-94.4289,8.4,31.2,11111222
Shell,ioos:station:wmo:42882:1,2023-07-01T23:30:00Z,26.2741,-94.4289,8.7,31.2,11111222
Shell,ioos:station:wmo:42882:1,2023-07-01T23:40:00Z,26.2741,-94.4289,8.8,31.2,11111222
Shell,ioos:station:wmo:42882:1,2023-07-01T23:50:00Z,26.2741,-94.4289,8.8,31.1,11111222
Shell,ioos:station:wmo:42882:1,2023-07-02T00:00:00Z,26.2741,-94.4289,8.7,31.2,11111222
Shell,ioos:station:wmo:42882:1,2023-07-02T00:10:00Z,26.2750,-94.4317,8.3,31.2,11111222
Shell,ioos:station:wmo:42882:1,2023-07-02T00:20:00Z,26.2750,-94.4317,8.2,31.3,11111222
Shell,ioos:station:wmo:42882:1,2023-07-02T00:30:00Z,26.2750,-94.4317,8.3,31.3,11111222
Shell,ioos:station:wmo:42882:1,2023-07-02T00:40:00Z,26.2750,-94.4317,8.2,31.3,11111222
Shell,ioos:station:wmo:42882:1,2023-07-02T00:50:00Z,26.2750,-94.4317,8.3,31.2,11111222
Shell,ioos:station:wmo:42882:1,2023-07-02T01:00:00Z,26.2750,-94.4317,8.3,31.1,11111222
Shell,ioos:station:wmo:42882:1,2023-07-02T01:10:00Z,26.2750,-94.4317,8.3,31.1,11111222
Shell,ioos:station:wmo:42882:1,2023-07-02T01:20:00Z,26.2750,-94.4317,8.2,31.0,11111222
Shell,ioos:station:wmo:42882:1,2023-07-02T01:30:00Z,26.2750,-94.4317,8.3,31.0,11111222
Shell,ioos:station:wmo:42882:1,2023-07-02T01:40:00Z,26.2750,-94.4317,8.2,31.0,11111222
Shell,ioos:station:wmo:42882:1,2023-07-02T01:50:00Z,26.2750,-94.4317,8.3,31.0,11111222
Shell,ioos:station:wmo:42882:1,2023-07-02T02:00:00Z,26.2750,-94.4317,8.5,31.0,11111222
Shell,ioos:station:wmo:42882:1,2023-07-02T02:10:00Z,26.2750,-94.4317,8.3,31.0,11111222
Shell,ioos:station:wmo:42882:1,2023-07-02T02:20:00Z,26.2750,-94.4317,8.3,30.9,11111222
Shell,ioos:station:wmo:42882:1,2023-07-02T02:30:00Z,26.2750,-94.4317,8.3,30.9,11111222
Shell,ioos:station:wmo:42882:1,2023-07-02T02:40:00Z,26.2750,-94.4317,8.3,30.9,11111222
Shell,ioos:station:wmo:42882:1,2023-07-02T02:50:00Z,26.2750,-94.4317,8.3,30.9,11111222
Shell,ioos:station:wmo:42882:1,2023-07-02T03:00:00Z,26.2750,-94.4317,8.3,30.9,11111222
Shell,ioos:station:wmo:42882:1,2023-07-02T03:10:00Z,26.2750,-94.4317,8.3,30.9,11111222
Shell,ioos:station:wmo:42882:1,2023-07-02T03:20:00Z,26.2750,-94.4317,8.3,30.9,11111222
Shell,ioos:station:wmo:42882:1,2023-07-02T03:30:00Z,26.2750,-94.4317,8.3,30.8,11111222
Shell,ioos:station:wmo:42882:1,2023-07-02T03:40:00Z,26.2750,-94.4317,8.3,30.8,11111222
Shell,ioos:station:wmo:42882:1,2023-07-02T03:50:00Z,26.2750,-94.4317,8.3,30.8,11111222
Shell,ioos:station:wmo:42882:1,2023-07-02T04:00:00Z,26.2750,-94.4317,8.3,30.9,11111222
Shell,ioos:station:wmo:42882:1,2023-07-02T04:10:00Z,26.2750,-94.4317,8.4,30.9,11111222
Shell,ioos:station:wmo:42882:1,2023-07-02T04:20:00Z,26.2750,-94.4317,8.4,30.9,11111222
Shell,ioos:station:wmo:42882:1,2023-07-02T04:30:00Z,26.2750,-94.4317,8.4,30.8,11111222
Shell,ioos:station:wmo:42882:1,2023-07-02T04:40:00Z,26.2750,-94.4317,8.6,30.8,11111222
Shell,ioos:station:wmo:42882:1,2023-07-02T04:50:00Z,26.2750,-94.4317,8.6,30.8,11111222
Shell,ioos:station:wmo:42882:1,2023-07-02T05:00:00Z,26.2741,-94.4289,8.6,30.8,11111222
Shell,ioos:station:wmo:42882:1,2023-07-02T05:10:00Z,26.2741,-94.4289,8.6,30.8,11111222
Shell,ioos:station:wmo:42882:1,2023-07-02T05:20:00Z,26.2741,-94.4289,8.5,30.8,11111222
Shell,ioos:station:wmo:42882:1,2023-07-02T05:30:00Z,26.2741,-94.4289,8.5,30.9,11111222
Shell,ioos:station:wmo:42882:1,2023-07-02T05:40:00Z,26.2741,-94.4289,8.4,30.9,11111222
Shell,ioos:station:wmo:42882:1,2023-07-02T05:50:00Z,26.2741,-94.4289,8.4,30.9,11111222
Shell,ioos:station:wmo:42882:1,2023-07-02T06:00:00Z,26.2741,-94.4289,8.4,31.0,11111222
Shell,ioos:station:wmo:42882:1,2023-07-02T06:10:00Z,26.2741,-94.4289,8.4,30.9,11111222
Shell,ioos:station:wmo:42882:1,2023-07-02T06:20:00Z,26.2741,-94.4289,8.4,30.9,11111222
Shell,ioos:station:wmo:42882:1,2023-07-02T06:30:00Z,26.2741,-94.4289,8.4,31.0,11111222
Shell,ioos:station:wmo:42882:1,2023-07-02T06:40:00Z,26.2741,-94.4289,8.4,31.0,11111222
Shell,ioos:station:wmo:42882:1,2023-07-02T06:50:00Z,26.2741,-94.4289,8.3,31.0,11111222
Shell,ioos:station:wmo:42882:1,2023-07-02T07:00:00Z,26.2741,-94.4289,8.4,31.0,11111222
Shell,ioos:station:wmo:42882:1,2023-07-02T07:10:00Z,26.2741,-94.4289,8.4,31.0,11111222
Shell,ioos:station:wmo:42882:1,2023-07-02T07:20:00Z,26.2741,-94.4289,8.4,31.0,11111222
Shell,ioos:station:wmo:42882:1,2023-07-02T07:30:00Z,26.2741,-94.4289,8.4,31.0,11111222
Shell,ioos:station:wmo:42882:1,2023-07-02T07:40:00Z,26.2741,-94.4289,8.4,31.0,11111222
Shell,ioos:station:wmo:42882:1,2023-07-02T07:50:00Z,26.2741,-94.4289,8.4,31.0,11111222
Shell,ioos:station:wmo:42882:1,2023-07-02T08:00:00Z,26.2741,-94.4289,8.4,31.0,11111222
Shell,ioos:station:wmo:42882:1,2023-07-02T08:10:00Z,26.2741,-94.4289,8.4,31.0,11111222
Shell,ioos:station:wmo:42882:1,2023-07-02T08:20:00Z,26.2741,-94.4289,8.4,31.0,11111222
Shell,ioos:station:wmo:42882:1,2023-07-02T08:30:00Z,26.2741,-94.4289,8.4,31.0,11111222
Shell,ioos:station:wmo:42882:1,2023-07-02T08:40:00Z,26.2741,-94.4289,8.5,31.0,11111222
Shell,ioos:station:wmo:42882:1,2023-07-02T08:50:00Z,26.2741,-94.4289,8.4,31.0,11111222
Shell,ioos:station:wmo:42882:1,2023-07-02T09:00:00Z,26.2741,-94.4289,8.4,31.1,11111222
Shell,ioos:station:wmo:42882:1,2023-07-02T09:10:00Z,26.2741,-94.4289,8.4,31.1,11111222
Shell,ioos:station:wmo:42882:1,2023-07-02T09:20:00Z,26.2741,-94.4289,8.4,31.1,11111222
Shell,ioos:station:wmo:42882:1,2023-07-02T09:30:00Z,26.2741,-94.4289,8.4,31.1,11111222
Shell,ioos:station:wmo:42882:1,2023-07-02T09:40:00Z,26.2741,-94.4289,8.4,31.1,11111222
Shell,ioos:station:wmo:42882:1,2023-07-02T09:50:00Z,26.2741,-94.4289,8.4,31.1,11111222
Shell,ioos:station:wmo:42882:1,2023-07-02T10:00:00Z,26.2741,-94.4289,8.4,31.0,11111222
Shell,ioos:station:wmo:42882:1,2023-07-02T10:10:00Z,26.2741,-94.4289,8.5,31.0,11111222
Shell,ioos:station:wmo:42882:1,2023-07-02T10:20:00Z,26.2741,-94.4289,8.5,31.1,11111222
Shell,ioos:station:wmo:42882:1,2023-07-02T10:30:00Z,26.2741,-94.4289,8.4,31.1,11111222
Shell,ioos:station:wmo:42882:1,2023-07-02T10:40:00Z,26.2741,-94.4289,8.3,31.1,11111222
Shell,ioos:station:wmo:42882:1,2023-07-02T10:50:00Z,26.2741,-94.4289,8.3,31.0,11111222
Shell,ioos:station:wmo:42882:1,2023-07-02T11:00:00Z,26.2741,-94.4289,8.3,31.0,11111222
Shell,ioos:station:wmo:42882:1,2023-07-02T11:10:00Z,26.2741,-94.4289,8.2,31.0,11111222
Shell,ioos:station:wmo:42882:1,2023-07-02T11:20:00Z,26.2741,-94.4289,8.2,31.0,11111222
Shell,ioos:station:wmo:42882:1,2023-07-02T11:30:00Z,26.2741,-94.4289,8.3,31.0,11111222
Shell,ioos:station:wmo:42882:1,2023-07-02T11:40:00Z,26.2741,-94.4289,8.3,31.0,11111222
Shell,ioos:station:wmo:42882:1,2023-07-02T11:50:00Z,26.2741,-94.4289,8.3,31.0,11111222
Shell,ioos:station:wmo:42882:1,2023-07-02T12:00:00Z,26.2741,-94.4289,8.5,31.0,11111222
Shell,ioos:station:wmo:42882:1,2023-07-02T12:10:00Z,26.2741,-94.4289,8.4,31.0,11111222
Shell,ioos:station:wmo:42882:1,2023-07-02T12:20:00Z,26.2741,-94.4289,8.4,31.1,11111222
Shell,ioos:station:wmo:42882:1,2023-07-02T12:30:00Z,26.2741,-94.4289,8.4,31.1,11111222
Shell,ioos:station:wmo:42882:1,2023-07-02T12:40:00Z,26.2741,-94.4289,8.2,31.2,11111222
Shell,ioos:station:wmo:42882:1,2023-07-02T12:50:00Z,26.2741,-94.4289,8.3,31.2,11111222
Shell,ioos:station:wmo:42882:1,2023-07-02T13:00:00Z,26.2741,-94.4289,8.3,31.1,11111222
Shell,ioos:station:wmo:42882:1,2023-07-02T13:10:00Z,26.2741,-94.4289,8.2,31.1,11111222
Shell,ioos:station:wmo:42882:1,2023-07-02T13:20:00Z,26.2741,-94.4289,8.4,31.1,11111222
Shell,ioos:station:wmo:42882:1,2023-07-02T13:30:00Z,26.2741,-94.4289,8.4,31.1,11111222
Shell,ioos:station:wmo:42882:1,2023-07-02T13:40:00Z,26.2741,-94.4289,8.5,31.2,11111222
Shell,ioos:station:wmo:42882:1,2023-07-02T13:50:00Z,26.2741,-94.4289,8.2,31.3,11111222
Shell,ioos:station:wmo:42882:1,2023-07-02T14:00:00Z,26.2741,-94.4289,8.3,31.3,11111222
Shell,ioos:station:wmo:42882:1,2023-07-02T14:10:00Z,26.2741,-94.4289,8.6,31.2,11111222
Shell,ioos:station:wmo:42882:1,2023-07-02T14:20:00Z,26.2741,-94.4289,8.8,31.1,11111222
Shell,ioos:station:wmo:42882:1,2023-07-02T14:30:00Z,26.2741,-94.4289,8.8,31.2,11111222
Shell,ioos:station:wmo:42882:1,2023-07-02T14:40:00Z,26.2741,-94.4289,8.8,31.2,11111222
Shell,ioos:station:wmo:42882:1,2023-07-02T14:50:00Z,26.2741,-94.4289,8.3,31.2,11111222
Shell,ioos:station:wmo:42882:1,2023-07-02T15:00:00Z,26.2741,-94.4289,8.3,31.3,11111222
Shell,ioos:station:wmo:42882:1,2023-07-02T15:10:00Z,26.2741,-94.4289,8.4,31.3,11111222
Shell,ioos:station:wmo:42882:1,2023-07-02T15:20:00Z,26.2741,-94.4289,8.4,31.3,11111222
Shell,ioos:station:wmo:42882:1,2023-07-02T15:30:00Z,26.2741,-94.4289,8.4,31.3,11111222
Shell,ioos:station:wmo:42882:1,2023-07-02T15:40:00Z,26.2741,-94.4289,8.2,31.3,11111222
Shell,ioos:station:wmo:42882:1,2023-07-02T15:50:00Z,26.2741,-94.4289,8.4,31.4,11111222
Shell,ioos:station:wmo:42882:1,2023-07-02T16:00:00Z,26.2741,-94.4289,8.6,31.4,11111222
Shell,ioos:station:wmo:42882:1,2023-07-02T16:10:00Z,26.2741,-94.4289,8.2,31.3,11111222
Shell,ioos:station:wmo:42882:1,2023-07-02T16:20:00Z,26.2741,-94.4289,8.4,31.3,11111222
Shell,ioos:station:wmo:42882:1,2023-07-02T16:30:00Z,26.2741,-94.4289,8.5,31.3,11111222
Shell,ioos:station:wmo:42882:1,2023-07-02T16:40:00Z,26.2741,-94.4289,8.5,31.4,11111222
Shell,ioos:station:wmo:42882:1,2023-07-02T16:50:00Z,26.2741,-94.4289,8.5,31.3,11111222
Shell,ioos:station:wmo:42882:1,2023-07-02T17:00:00Z,26.2741,-94.4289,8.5,31.3,11111222
Shell,ioos:station:wmo:42882:1,2023-07-02T17:10:00Z,26.2741,-94.4289,8.5,31.2,11111222
Shell,ioos:station:wmo:42882:1,2023-07-02T17:20:00Z,26.2741,-94.4289,8.5,31.2,11111222
Shell,ioos:station:wmo:42882:1,2023-07-02T17:30:00Z,26.2741,-94.4289,8.5,31.3,11111222
Shell,ioos:station:wmo:42882:1,2023-07-02T17:40:00Z,26.2741,-94.4289,8.6,31.3,11111222
Shell,ioos:station:wmo:42882:1,2023-07-02T17:50:00Z,26.2741,-94.4289,8.6,31.2,11111222
Shell,ioos:station:wmo:42882:1,2023-07-02T18:00:00Z,26.2741,-94.4289,8.4,31.2,11111222
Shell,ioos:station:wmo:42882:1,2023-07-02T18:10:00Z,26.2741,-94.4289,8.5,31.1,11111222
Shell,ioos:station:wmo:42882:1,2023-07-02T18:20:00Z,26.2741,-94.4289,8.5,31.1,11111222
Shell,ioos:station:wmo:42882:1,2023-07-02T18:30:00Z,26.2741,-94.4289,8.5,31.1,11111222
Shell,ioos:station:wmo:42882:1,2023-07-02T18:40:00Z,26.2741,-94.4289,8.5,31.1,11111222
Shell,ioos:station:wmo:42882:1,2023-07-02T18:50:00Z,26.2741,-94.4289,8.3,31.1,11111222
Shell,ioos:station:wmo:42882:1,2023-07-02T19:00:00Z,26.2741,-94.4289,8.3,31.1,11111222
Shell,ioos:station:wmo:42882:1,2023-07-02T19:10:00Z,26.2741,-94.4289,8.2,31.1,11111222
Shell,ioos:station:wmo:42882:1,2023-07-02T19:20:00Z,26.2741,-94.4289,8.2,31.0,11111222
Shell,ioos:station:wmo:42882:1,2023-07-02T19:30:00Z,26.2741,-94.4289,8.2,31.0,11111222
Shell,ioos:station:wmo:42882:1,2023-07-02T19:40:00Z,26.2741,-94.4289,8.4,31.0,11111222
Shell,ioos:station:wmo:42882:1,2023-07-02T19:50:00Z,26.2741,-94.4289,8.4,31.1,11111222
Shell,ioos:station:wmo:42882:1,2023-07-02T20:00:00Z,26.2741,-94.4289,8.3,31.1,11111222
Shell,ioos:station:wmo:42882:1,2023-07-02T20:10:00Z,26.2741,-94.4289,8.3,31.1,11111222
Shell,ioos:station:wmo:42882:1,2023-07-02T20:20:00Z,26.2741,-94.4289,8.3,31.1,11111222
Shell,ioos:station:wmo:42882:1,2023-07-02T20:30:00Z,26.2741,-94.4289,8.3,31.1,11111222
Shell,ioos:station:wmo:42882:1,2023-07-02T20:40:00Z,26.2741,-94.4289,8.3,31.1,11111222
Shell,ioos:station:wmo:42882:1,2023-07-02T20:50:00Z,26.2741,-94.4289,8.2,31.1,11111222
Shell,ioos:station:wmo:42882:1,2023-07-02T21:00:00Z,26.2741,-94.4289,8.4,31.1,11111222